[[{"header":{"parameterUnit":"m.s-1","parameterCategory":1,"la1":30.2991,"la2":30.254,"lo1":-89.0895,"lo2":-89.0444,"dy":0.0017,"dx":0.0017,"nx":28,"ny":28,"refTime":"2025-01-03T03:00:00:Z","depth":0,"parameterNumber":2,"parameterNumberName":"U-component_of_WINDS"},"data":[0,0,0,0,0,0,0,0,0,0,0,0,0,0,0,0,0,0,0,0,0,0,0,0,0,0,0,0,0,0,0,0,0,0,0,0,0,0,0,0,0,0,0,0,0,0,0,0,0,0,0,0,0,0,0,0,0,0,-6.2503,-6.2502,0,-6.2461,-6.246,-6.246,-6.2314,-6.231,-6.2307,-6.2304,-6.2264,-6.2266,-6.2268,0,0,0,0,0,0,0,0,0,0,0,0,0,-6.2461,-6.2462,-6.2503,-6.2502,-6.2502,-6.2461,-6.246,-6.246,-6.2314,-6.231,-6.2306,-6.2302,-6.2263,-6.2265,-6.2268,0,0,0,0,0,0,0,0,0,0,0,0,0,-6.2455,-6.2463,-6.2503,-6.2424,-6.2417,-6.2461,-6.246,-6.246,-6.2315,-6.231,-6.2305,-6.23,-6.2262,-6.2265,-6.2268,-6.2386,0,0,-6.2277,-6.2279,0,0,0,0,0,0,0,0,-6.2456,-6.2457,-6.2436,-6.243,-6.2421,-6.2387,-6.243,-6.2435,-6.2316,-6.2354,-6.2304,-6.2298,-6.2309,-6.2308,-6.2311,-6.2384,-6.2382,-6.2278,-6.2279,-6.2281,-6.2282,0,0,0,0,0,0,0,-6.2456,-6.2458,-6.2486,-6.2436,-6.2427,-6.2392,-6.2386,-6.2431,-6.236,-6.235,-6.2339,-6.2336,-6.2304,-6.2308,-6.2309,-6.2382,-6.2278,-6.228,-6.2282,-6.2283,-6.255,-6.2555,0,0,0,0,0,0,-6.2467,-6.2459,-6.2487,-6.2485,-6.2427,-6.2397,-6.239,-6.2403,-6.2359,-6.2347,-6.2341,-6.233,-6.2306,-6.2306,-6.2307,-6.244,-6.2281,-6.2284,-6.2285,-6.2544,-6.2551,-6.2557,0,0,0,0,0,0,-6.2467,-6.2471,-6.2489,-6.2469,-6.2469,-6.2403,-6.2419,-6.2405,-6.2409,-6.2352,-6.2339,-6.2358,-6.2302,-6.2303,-6.2367,-6.2437,-6.2285,-6.2288,-6.2538,-6.2546,-6.2554,-6.2709,0,0,0,0,0,0,-6.2466,-6.2472,-6.2515,-6.2471,-6.247,-6.2549,-6.2423,-6.2408,-6.2414,-6.24,-6.2364,-6.2354,-6.2298,-6.2363,-6.237,-6.2438,-6.229,-6.2532,-6.2542,-6.2551,-6.2697,-6.2721,-6.2742,0,0,0,0,0,-6.2465,-6.2561,-6.2518,-6.2522,-6.2522,-6.2553,-6.2553,-6.2486,-6.2421,-6.2463,-6.2427,-6.2355,-6.243,-6.2371,-6.2378,-6.2448,-6.2527,-6.2539,-6.255,-6.2687,-6.2717,-6.2742,0,0,0,0,0,0,-6.2614,-6.2553,-6.2505,-6.2589,-6.2578,-6.2529,-6.258,-6.2519,-6.2527,-6.2513,-6.2431,-6.2424,-6.25,-6.2481,-6.2417,-6.256,-6.2466,-6.248,-6.2568,-6.2596,-6.2617,-6.2618,-6.2292,0,0,0,0,0,-6.2657,-6.2687,-6.2632,-6.2712,-6.2708,-6.2646,-6.2657,-6.2607,-6.2592,-6.2587,-6.2555,-6.2544,-6.2565,-6.258,-6.2596,-6.2696,-6.2686,-6.2748,-6.277,-6.2789,-6.28,-6.2851,-6.2877,-6.2596,-6.2595,-6.2595,0,0,-6.2745,-6.2716,-6.2739,-6.2741,-6.2726,-6.2759,-6.2643,-6.2682,-6.2706,-6.2593,-6.265,-6.2628,-6.2611,-6.2693,-6.2728,-6.2679,-6.2877,-6.2804,-6.2819,-6.282,-6.2866,-6.2892,-6.2916,-6.2604,-6.2602,-6.2601,0,0,-6.2921,-6.2903,-6.2966,-6.2954,-6.2933,-6.2892,-6.2908,-6.2869,-6.2849,-6.2906,-6.2822,-6.2851,-6.2889,-6.2879,-6.288,-6.3057,-6.299,-6.3066,-6.318,-6.323,-6.3252,-6.3271,-6.3332,-6.3355,-6.3078,-6.3079,-6.3079,0,-6.3033,-6.3077,-6.3007,-6.3052,-6.3055,-6.2955,-6.3019,-6.3012,-6.2998,-6.3003,-6.295,-6.2995,-6.2977,-6.3056,-6.3099,-6.3104,-6.3119,-6.3066,-6.3255,-6.3273,-6.329,-6.3347,-6.3371,-6.3087,-6.3086,-6.3085,-6.3085,0,-6.3215,-6.3249,-6.3303,-6.3291,-6.3301,-6.3356,-6.3294,-6.3314,-6.3265,-6.323,-6.329,-6.3265,-6.3274,-6.329,-6.3243,-6.3363,-6.3333,-6.3269,-6.3172,-6.3327,-6.3379,-6.3401,-6.31,-6.3097,-6.3094,-6.3092,0,0,-6.3478,-6.3429,-6.345,-6.3443,-6.3415,-6.344,-6.3492,-6.35,-6.3517,-6.3514,-6.3554,-6.359,-6.3531,-6.3532,-6.3483,-6.3528,-6.3668,-6.3458,-6.3457,-6.3495,-6.3797,-6.3842,-6.3868,-6.3626,-6.363,-6.3633,-6.3797,0,-6.3643,-6.3725,-6.3665,-6.3758,-6.3787,-6.3696,-6.3741,-6.3729,-6.3699,-6.3721,-6.3689,-6.3714,-6.3636,-6.3635,-6.3676,-6.3643,-6.3727,-6.3631,-6.3662,-6.3664,-6.3664,-6.3896,-6.3943,-6.4098,-6.3817,-6.3821,-6.3823,0,-6.3844,-6.3848,-6.3944,-6.391,-6.392,-6.3961,-6.3965,-6.3987,-6.3974,-6.3949,-6.3952,-6.3892,-6.3941,-6.3851,-6.3918,-6.3853,-6.3864,-6.385,-6.3855,-6.3851,-6.3749,-6.3895,-6.4147,-6.4168,-6.3855,-6.3853,-6.3851,0,-6.4022,-6.4052,-6.4113,-6.4111,-6.4074,-6.4105,-6.4092,-6.4073,-6.4083,-6.4087,-6.4092,-6.4104,-6.4109,-6.412,-6.4065,-6.4005,-6.4139,-6.4044,-6.4118,-6.412,-6.4146,-6.4144,-6.4399,-6.4161,-6.4161,-6.416,-6.416,0,-6.4209,-6.4271,-6.4192,-6.4229,-6.4297,-6.4229,-6.4297,-6.4275,-6.426,-6.4291,-6.4215,-6.4247,-6.4175,-6.4201,-6.416,-6.422,-6.4224,-6.4205,-6.4192,-6.4209,-6.4211,-6.421,-6.4196,-6.4166,-6.4165,-6.4164,-6.4163,0,-6.4416,-6.4367,-6.4427,-6.4388,-6.438,-6.4431,-6.4398,-6.4432,-6.4399,-6.444,-6.4446,-6.4394,-6.442,-6.4368,-6.4388,-6.436,-6.4444,-6.4417,-6.4448,-6.4438,-6.4514,-6.4506,-6.4773,-6.4804,-6.4552,-6.4554,-6.4556,0,-6.4536,-6.4581,-6.4548,-6.4564,-6.4554,-6.4581,-6.459,-6.4527,-6.454,-6.453,-6.4565,-6.4584,-6.4595,-6.4642,-6.4606,-6.4621,-6.459,-6.4684,-6.4592,-6.4607,-6.4587,-6.4583,-6.4586,-6.4701,-6.4704,-6.4706,-6.4708,0,-6.4753,-6.4727,-6.4743,-6.4752,-6.4765,-6.4769,-6.4767,-6.4785,-6.4718,-6.4738,-6.4763,-6.4772,-6.4792,-6.4812,-6.4819,-6.4806,-6.4746,-6.4739,-6.4756,-6.477,-6.4785,-6.4774,-6.4495,-6.4731,-6.4729,-6.4727,-6.4726,-6.4725,-6.4917,-6.4953,-6.4935,-6.4956,-6.4949,-6.495,-6.4979,-6.495,-6.497,-6.498,-6.4944,-6.4977,-6.4964,-6.4967,-6.4961,-6.4987,-6.4945,-6.4972,-6.4977,-6.4983,-6.4994,-6.4786,-6.4989,-6.4988,-6.4988,-6.4987,-6.4987,0,-6.5127,-6.5112,-6.5132,-6.5132,-6.5149,-6.5094,-6.509,-6.5108,-6.5138,-6.5131,-6.5145,-6.5174,-6.5195,-6.5162,-6.5177,-6.5204,-6.5177,-6.521,-6.5204,-6.5202,-6.5032,-6.5014,-6.5231,-6.5231,-6.5231,-6.5231,-6.5231,-6.5231,-6.5237,-6.5294,-6.5267,-6.532,-6.5305,-6.5337,-6.5339,-6.534,-6.5334,-6.537,-6.5386,-6.5366,-6.5349,-6.5362,-6.5379,-6.5369,-6.5376,-6.5418,-6.5398,-6.5238,-6.5214,-6.5191,-6.5173,-6.5421,-6.5421,-6.5565,-6.5567,-6.5568]},{"header":{"parameterUnit":"m.s-1","parameterCategory":1,"la1":30.2991,"la2":30.254,"lo1":-89.0895,"lo2":-89.0444,"dy":0.0017,"dx":0.0017,"nx":28,"ny":28,"refTime":"2025-01-03T03:00:00:Z","depth":0,"parameterNumber":3,"parameterNumberName":"V-component_of_WINDS"},"data":[0,0,0,0,0,0,0,0,0,0,0,0,0,0,0,0,0,0,0,0,0,0,0,0,0,0,0,0,0,0,0,0,0,0,0,0,0,0,0,0,0,0,0,0,0,0,0,0,0,0,0,0,0,0,0,0,0,0,0.0168,0.0168,0,0.0158,0.0158,0.0157,0.0116,0.0115,0.0114,0.0113,0.0106,0.0107,0.0107,0,0,0,0,0,0,0,0,0,0,0,0,0,0.0156,0.0157,0.0168,0.0168,0.0168,0.0158,0.0158,0.0157,0.0116,0.0115,0.0114,0.0113,0.0106,0.0106,0.0107,0,0,0,0,0,0,0,0,0,0,0,0,0,0.0155,0.0157,0.0168,0.0146,0.0144,0.0158,0.0158,0.0157,0.0116,0.0115,0.0113,0.0112,0.0105,0.0106,0.0107,0.0143,0,0,0.0111,0.0111,0,0,0,0,0,0,0,0,0.0155,0.0156,0.0149,0.0147,0.0145,0.0136,0.0151,0.0153,0.0117,0.0127,0.0113,0.0111,0.0117,0.0117,0.0119,0.0143,0.0143,0.0111,0.0111,0.0112,0.0112,0,0,0,0,0,0,0,0.0155,0.0156,0.0164,0.0149,0.0146,0.0138,0.0136,0.0151,0.0131,0.0126,0.0123,0.0122,0.0116,0.0118,0.0118,0.0142,0.0111,0.0112,0.0112,0.0113,0.0199,0.0201,0,0,0,0,0,0,0.0158,0.0156,0.0164,0.0164,0.0147,0.0139,0.0137,0.0141,0.013,0.0127,0.0123,0.012,0.0117,0.0117,0.0118,0.0162,0.0112,0.0113,0.0114,0.0198,0.02,0.0201,0,0,0,0,0,0,0.0158,0.0159,0.0165,0.0159,0.0159,0.0141,0.0145,0.0141,0.0143,0.0128,0.0125,0.0129,0.0116,0.0116,0.0138,0.0161,0.0113,0.0114,0.0196,0.0198,0.0201,0.0248,0,0,0,0,0,0,0.0158,0.0159,0.0171,0.016,0.016,0.0183,0.0146,0.0142,0.0145,0.014,0.0132,0.013,0.0115,0.0137,0.0139,0.0162,0.0115,0.0194,0.0197,0.02,0.0245,0.0252,0.0258,0,0,0,0,0,0.0158,0.0185,0.0172,0.0173,0.0174,0.0185,0.0185,0.0166,0.0147,0.016,0.0151,0.013,0.0158,0.0139,0.0141,0.0165,0.0192,0.0196,0.02,0.0241,0.0251,0.0258,0,0,0,0,0,0,0.0201,0.0183,0.0169,0.0193,0.0191,0.0178,0.0193,0.0176,0.018,0.0176,0.0153,0.0152,0.0177,0.0173,0.0152,0.0201,0.0172,0.0176,0.0203,0.0211,0.0218,0.022,0.0116,0,0,0,0,0,0.0213,0.0221,0.0206,0.0229,0.0229,0.0212,0.0215,0.0201,0.0198,0.0197,0.019,0.0189,0.0198,0.0204,0.0211,0.0243,0.0243,0.0261,0.0268,0.0274,0.0278,0.0299,0.0307,0.0214,0.0214,0.0214,0,0,0.0238,0.023,0.0237,0.0238,0.0234,0.0246,0.0211,0.0224,0.0233,0.02,0.022,0.0215,0.0212,0.024,0.0252,0.0237,0.0304,0.0278,0.0283,0.0285,0.0303,0.0312,0.032,0.0216,0.0216,0.0215,0,0,0.0291,0.0284,0.0304,0.0302,0.0297,0.0286,0.0291,0.0281,0.0276,0.0296,0.0272,0.0283,0.0298,0.0298,0.03,0.0356,0.0339,0.0359,0.0396,0.0416,0.0424,0.043,0.0453,0.0461,0.0364,0.0364,0.0364,0,0.0324,0.0339,0.0317,0.0333,0.0335,0.0305,0.0327,0.0326,0.0324,0.0327,0.031,0.033,0.0326,0.0356,0.037,0.0371,0.0379,0.0361,0.0424,0.0431,0.0436,0.0458,0.0466,0.0367,0.0366,0.0366,0.0366,0,0.0381,0.0392,0.0409,0.0408,0.0413,0.0431,0.0414,0.0421,0.0407,0.0399,0.0421,0.0416,0.0422,0.0428,0.0414,0.0457,0.0448,0.0428,0.0399,0.0448,0.0469,0.0476,0.037,0.0369,0.0369,0.0368,0,0,0.0461,0.0449,0.0456,0.0456,0.045,0.0459,0.0477,0.0483,0.0492,0.0492,0.0508,0.0523,0.0505,0.0508,0.0494,0.0511,0.056,0.049,0.0489,0.0505,0.061,0.0627,0.0637,0.0548,0.0549,0.055,0.0611,0,0.0513,0.0543,0.0525,0.0558,0.057,0.0543,0.0559,0.0558,0.0551,0.0562,0.0554,0.0566,0.054,0.0542,0.0557,0.0551,0.0581,0.0546,0.0566,0.0567,0.0569,0.0647,0.0664,0.0722,0.0619,0.062,0.0621,0,0.0578,0.0582,0.0617,0.0611,0.0615,0.063,0.0636,0.0645,0.0645,0.0638,0.0643,0.0625,0.0646,0.0616,0.0645,0.0621,0.0628,0.0626,0.0628,0.0631,0.0598,0.0654,0.0739,0.0749,0.0632,0.0631,0.0631,0,0.0637,0.065,0.0673,0.0674,0.0667,0.0679,0.0676,0.0674,0.068,0.0686,0.069,0.0698,0.0703,0.0711,0.0697,0.0676,0.073,0.0697,0.0727,0.0728,0.0741,0.0741,0.0831,0.0742,0.0742,0.0742,0.0741,0,0.0699,0.0722,0.07,0.0714,0.074,0.072,0.0747,0.0742,0.0741,0.0755,0.0732,0.0747,0.0727,0.074,0.073,0.0758,0.0759,0.0757,0.0755,0.076,0.0761,0.0766,0.0763,0.0744,0.0743,0.0743,0.0742,0,0.0769,0.0754,0.0778,0.077,0.0768,0.0788,0.0782,0.0796,0.0788,0.0807,0.0811,0.0798,0.0813,0.08,0.0814,0.0808,0.0845,0.0835,0.0845,0.0844,0.0875,0.0874,0.0974,0.0988,0.0887,0.0888,0.0889,0,0.0811,0.0828,0.0821,0.0829,0.0829,0.0841,0.0848,0.0829,0.0837,0.0839,0.0854,0.0867,0.0877,0.0902,0.0896,0.0907,0.09,0.0934,0.0901,0.0908,0.0904,0.0904,0.0907,0.0941,0.0943,0.0944,0.0944,0,0.0887,0.088,0.0889,0.0897,0.0905,0.091,0.0914,0.0922,0.0903,0.0914,0.0929,0.0936,0.0951,0.0966,0.0976,0.0975,0.0958,0.0954,0.0963,0.097,0.0976,0.0977,0.0866,0.0953,0.0952,0.0951,0.0951,0.095,0.0946,0.0961,0.096,0.0972,0.0973,0.0978,0.0992,0.0985,0.0997,0.1008,0.0996,0.1015,0.1017,0.1029,0.1031,0.1047,0.1033,0.1044,0.1047,0.1051,0.1057,0.0972,0.1048,0.1048,0.1048,0.1048,0.1047,0,0.1024,0.1022,0.1034,0.104,0.105,0.1031,0.1035,0.1046,0.1062,0.1065,0.1075,0.1094,0.1109,0.1103,0.1117,0.1131,0.1124,0.1135,0.1136,0.1137,0.1067,0.106,0.1141,0.1141,0.1141,0.1141,0.1141,0.1141,0.1066,0.1092,0.1085,0.1112,0.111,0.1128,0.1133,0.1138,0.114,0.1162,0.1174,0.117,0.1171,0.1184,0.1198,0.1196,0.1203,0.1218,0.1214,0.115,0.1141,0.1132,0.1126,0.1219,0.122,0.1283,0.1283,0.1284]}]]